Home   Weather   Kaunas   Past weeks

Flag for Lithuania Past Weather in Kaunas, Lithuania — Yesterday and Last 2 Weeks

Now
41 °F

Light rain. Low clouds.


Feels Like: 41 °F
Forecast: 32 / 50 °F
Wind: 2 mph from North

Location: Kaunas

Current Time: Apr 29, 2017 at 9:04:30 am

Latest Report: Apr 29, 2017 at 8:20 am


Visibility: N/A

Pressure: 29.68 "Hg

Humidity: 87%

Dew Point: 37 °F

Location of KaunasLocation

Past Weather in Kaunas — Graph

°F

Kaunas Temperature Yesterday

Maximum temperature yesterday: 46 °F (at 11:20 am)
Minimum temperature yesterday: 36 °F (at 5:50 am)
Average temperature yesterday: 41 °F

High & Low Weather Summary for the Past Weeks

 TemperatureHumidityPressure
High57 °F (Apr 25, 2:50 pm)93% (Apr 14, 7:20 am)30.48 "Hg (Apr 14, 7:20 am)
Low23 °F (Apr 18, 3:20 am)34% (Apr 23, 12:50 pm)29.42 "Hg (Apr 22, 5:20 am)
Average39 °F69%29.90 "Hg
* Reported Apr 14 7:20 am — Apr 29 7:50 am, Kaunas, Weather by CustomWeather, © 2017

Note: Actual official high and low records may vary slightly from our data, if they occured in-between our weather recording intervals... More about our weather records

Advertising

Kaunas Weather History for the Previous 24 Hours

Scroll right to see more
 ConditionsComfort  
Time TempWeatherWind HumidityBarometerVisibility
7:50 am
Sat, Apr 29
41 °FLight rain. Low clouds.2 mph87%29.65 "HgN/A
7:20 am41 °FLight rain. Low clouds.3 mph87%29.65 "HgN/A
6:50 am39 °FLight rain. Low clouds.2 mph93%29.68 "HgN/A
6:20 am39 °FLight rain. Low clouds.3 mph93%29.68 "HgN/A
5:50 am39 °FLight rain. Low clouds.5 mph93%29.68 "Hg6 mi
5:20 am39 °FLight rain. Low clouds.3 mph93%29.71 "Hg6 mi
4:50 am39 °FLight rain. Low clouds.7 mph93%29.71 "Hg5 mi
4:20 am39 °FLight rain. Low clouds.7 mph93%29.71 "Hg5 mi
3:50 am39 °FLight rain. Low clouds.7 mph87%29.74 "HgN/A
3:20 am39 °FDrizzle. Low clouds.7 mph93%29.74 "HgN/A
2:50 am39 °FDrizzle. Low clouds.10 mph87%29.74 "HgN/A
2:20 am39 °FLow clouds.7 mph87%29.77 "HgN/A
1:50 am39 °FLow clouds.9 mph87%29.77 "HgN/A
1:20 am39 °FLow clouds.9 mph87%29.80 "HgN/A
12:50 am39 °FLight rain. Low clouds.9 mph87%29.80 "HgN/A
12:20 am39 °FLight rain. Low clouds.10 mph87%29.80 "HgN/A
11:50 pm
Fri, Apr 28
37 °FLight rain. Low clouds.9 mph87%29.83 "HgN/A
11:20 pm37 °FLight rain. Low clouds.9 mph87%29.83 "HgN/A
10:50 pm37 °FLight rain. Low clouds.10 mph87%29.86 "HgN/A
10:20 pm39 °FLight rain. Mostly cloudy.13 mph81%29.86 "HgN/A
9:50 pm39 °FLight rain. Low clouds.12 mph81%29.86 "HgN/A
9:20 pm39 °FLight rain. Mostly cloudy.10 mph87%29.86 "HgN/A
8:50 pm39 °FLight rain. Mostly cloudy.14 mph81%29.89 "HgN/A
8:20 pm39 °FLight rain. Mostly cloudy.13 mph87%29.89 "HgN/A
7:50 pm39 °FLight rain. Mostly cloudy.14 mph87%29.89 "HgN/A
7:20 pm39 °FLight rain. Low clouds.13 mph87%29.92 "HgN/A
6:50 pm39 °FLight rain. Low clouds.10 mph87%29.92 "Hg4 mi
6:20 pm39 °FLight rain. Mostly cloudy.10 mph87%29.92 "HgN/A
5:50 pm39 °FSprinkles. Mostly cloudy.14 mph87%29.92 "HgN/A
5:20 pm39 °FSprinkles. Cloudy.16 mph87%29.92 "HgN/A
4:50 pm41 °FSprinkles. Cloudy.15 mph81%29.95 "HgN/A
4:20 pm41 °FLight rain. Mostly cloudy.12 mph81%29.98 "HgN/A
3:50 pm41 °FLight rain. Mostly cloudy.14 mph81%29.95 "HgN/A
3:20 pm43 °FLight rain. Mostly cloudy.12 mph81%29.98 "HgN/A
2:50 pm43 °FLight rain. Mostly cloudy.12 mph81%29.98 "HgN/A
2:20 pm43 °FLight rain. Mostly cloudy.12 mph81%29.98 "HgN/A
1:50 pm45 °FLight rain. Mostly cloudy.13 mph71%29.98 "HgN/A
1:20 pm45 °FLight rain. Overcast.14 mph71%30.01 "HgN/A
12:50 pm46 °FLight rain. Overcast.12 mph62%30.01 "HgN/A
12:20 pm46 °FLight rain. Overcast.9 mph66%30.01 "HgN/A
11:50 am46 °FSunny.8 mph66%30.04 "Hg10 mi
11:20 am46 °FOvercast.5 mph66%30.04 "HgN/A
10:50 am45 °FPassing clouds.7 mph71%30.04 "HgN/A
10:20 am45 °FPassing clouds.6 mph71%30.04 "HgN/A
9:50 am43 °FSunny.5 mph76%30.04 "Hg10 mi
9:20 am43 °FSunny.3 mph76%30.04 "Hg10 mi
Weather by CustomWeather, © 2017

See weather overviewHow to use our weather pages